STARLINK-3755 (52307 NORAD) Tracking and Keplerian Element Data
This shows tracking and keplerian element data for the satellite.
Feedback or suggestion? Click here.
Element | Value |
Catalog | 52307 |
Name | STARLINK-3755 |
Epoch Orbit | 130 |
Epoch Day | 167.08334491 |
Epoch Year | 2022 |
RAAN | 101.5144 |
Inclination | 53.2173 |
Eccentricity | 0.0001193 |
Argument of Perigee | 90.7228 |
Mean Anonmoly | 188.4455 |
Mean Motion | 15.5499724 |
Decay Rate | -0.00712549 |
L1 | 1 52307U 22041AY 22167.08334491 -.00712549 00000+0 -11407-1 0 9999 |
L2 | 2 52307 53.2173 101.5144 0001193 90.7228 188.4455 15.54997240 1303 |
Live tracking and technical data element details for STARLINK-3755 (NORAD 52307). STARLINK-3755 can be tracked NOW for your location showing map with azimuth and elevation plus other details from your city location.
Track the satellite on the map from your city or location and see movement details for azimuth, elevation, latitude, longitude, range, height, and movement on the map or in text.
IsCatalogInMostPopularTable: catalog: 52307, numindb: 6
Update: records affected: 1
GetName: 52307 STARLINK-3755
Hit Count: updated at: Sat, 25 Jun 2022 04:10:39 GMT